Wetbulb
46.34 46.07 45.37 45.01 45.05 45.51 45.98 46.54 48.54 49.37 50.19 50.32 51.08 51.21 51.81 51.88 50.85 49.86 50.11 49.75 49.67 50.21
46.04 45.18 44.67 44.31 44.82 45.22 45.91 46.33 48.21 48.98 49.36 50.01 50.86 51.19 51.71 51.47 50.01 49.49 49.90 49.85 50.03 50.55
45.83 45.38 44.96 44.37 44.03 44.51 45.81 46.61 47.81 48.29 49.13 49.61 50.50 50.53 50.85 50.80 49.73 49.33 49.47 49.59 49.87 50.68
44.80 44.53 44.29 44.31 43.98 44.67 45.53 46.28 47.47 48.09 48.50 49.06 49.67 50.10 50.13 50.61 49.57 49.03 48.97 49.49 50.19 49.56
44.67 43.93 43.70 43.54 43.88 44.73 45.25 46.06 47.45 47.58 48.36 48.84 49.40 49.89 49.76 49.91 49.35 48.61 48.41 48.97 49.62 49.02
43.77 43.82 43.42 43.28 43.70 44.64 44.99 45.67 46.76 47.21 47.86 48.56 49.26 49.80 49.86 50.00 49.74 49.29 48.85 48.93 49.43 48.62
43.50 43.66 43.25 43.42 43.80 44.29 44.97 45.22 46.21 46.94 47.51 48.19 49.32 49.78 50.11 49.56 50.84 50.25 49.17 49.23 49.37 48.80
43.44 43.13 42.61 42.83 43.15 43.64 44.34 44.93 45.86 46.23 47.05 47.49 48.74 49.30 50.25 49.60 49.75 50.19 49.19 49.03 48.81 48.66
41.94 41.88 42.08 41.89 42.25 42.70 43.31 43.87 44.84 45.33 46.30 46.56 47.10 44.09 44.21 46.86 48.45 49.59 49.34 48.39 48.23 47.45
41.22 41.49 41.72 41.68 41.81 41.92 42.39 42.71 43.51 44.37 45.51 45.90 46.71 42.26 42.72 42.73 48.09 48.56 49.19 48.63 47.32 45.43
40.47 40.58 40.42 40.82 41.34 41.27 41.85 42.65 42.76 43.20 44.31 45.24 45.22 41.04 42.08 41.16 47.85 47.94 48.73 48.07 46.92 45.52
40.58 39.28 39.44 40.08 40.32 41.07 40.89 40.93 41.89 42.14 42.96 44.23 44.36 40.44 41.26 44.70 47.12 45.43 45.86 46.65 46.76 45.71
39.92 39.90 40.00 40.24 39.75 38.39 41.38 40.60 40.33 39.84 42.50 39.34 43.52 39.47 40.45 45.28 45.99 44.74 43.59 43.69 43.65 37.23
39.12 39.44 40.38 39.94 37.71 39.36 37.96 38.30 38.18 37.69 38.75 39.58 41.27 41.19 40.94 41.76 44.80 44.47 40.69 39.76 37.42 37.44
MSLP
1015.18 1015.99 1016.88 1017.58 1018.24 1018.86 1019.25 1019.69 1020.18 1020.48 1020.74 1020.97 1021.01 1021.11 1021.01 1021.03 1021.25 1021.48 1021.55 1021.62 1021.75 1021.84
1014.82 1015.64 1016.43 1017.14 1017.81 1018.46 1018.92 1019.49 1020.08 1020.35 1020.65 1020.91 1020.91 1021.16 1021.16 1021.31 1021.32 1021.65 1021.99 1022.12 1022.22 1022.33
1014.41 1015.12 1015.82 1016.66 1017.41 1018.11 1018.75 1019.30 1019.99 1020.34 1020.56 1020.90 1021.02 1021.18 1021.33 1021.63 1021.74 1021.85 1022.36 1022.56 1022.71 1022.97
1014.09 1014.87 1015.61 1016.41 1017.16 1017.78 1018.49 1019.06 1019.70 1020.22 1020.50 1020.84 1021.09 1021.22 1021.47 1021.75 1021.99 1022.08 1022.56 1022.87 1023.05 1023.38
1013.89 1014.72 1015.46 1016.14 1016.86 1017.53 1018.29 1018.87 1019.31 1019.96 1020.43 1020.80 1021.10 1021.40 1021.54 1021.81 1022.11 1022.31 1022.70 1023.10 1023.44 1023.88
1013.76 1014.49 1015.27 1016.01 1016.76 1017.42 1018.03 1018.73 1019.28 1019.85 1020.35 1020.73 1021.07 1021.36 1021.63 1021.82 1022.21 1022.49 1022.87 1023.23 1023.44 1023.96
1013.32 1014.13 1014.97 1015.79 1016.58 1017.18 1017.81 1018.49 1019.14 1019.68 1020.19 1020.64 1021.07 1021.33 1021.59 1021.78 1022.18 1022.54 1023.00 1023.36 1023.65 1024.05
1013.13 1013.95 1014.81 1015.67 1016.47 1017.09 1017.65 1018.22 1018.80 1019.46 1020.11 1020.53 1020.87 1021.21 1021.50 1021.74 1022.07 1022.59 1023.11 1023.55 1023.85 1024.01
1013.04 1013.85 1014.68 1015.55 1016.34 1016.98 1017.55 1018.10 1018.74 1019.35 1019.85 1020.41 1020.78 1021.12 1021.47 1021.77 1022.15 1022.61 1023.02 1023.58 1024.03 1024.33
1012.94 1013.63 1014.29 1015.03 1015.88 1016.69 1017.30 1017.92 1018.61 1019.20 1019.68 1020.33 1020.71 1021.06 1021.46 1021.65 1022.27 1022.69 1023.03 1023.40 1023.84 1024.39
1012.81 1013.48 1014.19 1014.84 1015.54 1016.29 1016.94 1017.57 1018.25 1018.89 1019.50 1020.14 1020.61 1020.93 1021.41 1021.75 1022.24 1022.60 1022.93 1023.29 1023.64 1024.17
1012.50 1013.16 1013.99 1014.80 1015.27 1015.87 1016.58 1017.48 1018.02 1018.54 1019.28 1019.82 1020.41 1020.70 1021.26 1021.72 1022.15 1022.56 1022.90 1023.27 1023.54 1024.09
1012.23 1012.89 1013.57 1014.28 1015.01 1015.69 1016.27 1017.04 1017.81 1018.50 1018.87 1019.36 1020.12 1020.68 1021.16 1021.56 1021.95 1022.48 1022.95 1023.37 1023.74 1024.31
1011.95 1012.53 1013.17 1014.04 1014.75 1015.35 1016.20 1017.02 1017.78 1018.43 1018.77 1019.27 1019.86 1020.60 1021.11 1021.51 1021.78 1022.19 1022.93 1023.40 1023.88 1024.06
Wind_Speed
13 8 7 9 7 6 6 5 7 5 4 3 2 2 3 2 4 4 3 6 5 7
12 11 9 9 8 7 6 5 7 6 5 4 3 3 4 3 4 6 4 6 6 7
13 11 10 9 9 9 7 6 7 6 6 5 4 3 4 4 4 7 4 5 7 7
11 11 10 9 8 9 8 8 7 6 6 6 5 4 5 5 5 7 7 6 7 7
11 10 10 9 9 9 9 8 8 7 6 6 6 5 5 5 5 7 7 7 8 7
11 11 10 9 9 9 10 8 7 7 7 6 6 6 5 5 6 6 7 7 8 8
12 12 10 9 10 10 9 10 8 7 6 6 5 5 6 6 6 6 7 6 6 7
10 10 10 9 9 9 9 9 9 8 6 6 5 4 6 5 6 6 7 6 6 5
11 11 10 10 10 9 9 9 8 8 8 7 4 8 8 7 5 6 7 7 5 5
10 11 12 11 11 10 10 9 9 8 8 7 5 9 9 10 5 5 5 7 6 5
10 10 10 11 11 10 9 11 9 8 7 7 5 11 11 10 6 5 6 6 6 6
10 11 11 11 11 9 9 7 8 7 9 8 6 11 11 9 6 5 6 5 6 6
10 11 12 12 11 5 8 8 7 7 8 7 7 11 9 8 5 5 4 4 5 7
9 11 11 10 5 9 7 8 7 7 6 6 6 9 13 8 5 5 4 4 3 2
Wind_Direction
165 166 164 167 165 171 175 159 161 165 157 155 133 125 107 84 89 96 91 108 96 107
163 158 167 170 166 166 161 153 156 161 155 159 153 139 116 100 101 100 105 104 104 113
167 168 164 161 168 164 158 151 155 156 156 157 148 143 120 102 103 107 110 114 117 111
165 163 158 164 163 165 155 159 159 158 155 153 152 154 126 114 124 119 125 121 123 112
155 155 161 162 163 154 159 163 161 157 153 154 151 153 146 136 134 134 138 134 123 122
158 164 166 160 158 158 154 159 154 152 161 155 157 155 157 146 144 144 148 149 144 144
164 166 163 157 158 159 158 155 158 163 159 154 158 157 159 152 146 141 150 152 147 150
158 154 149 150 153 151 157 162 160 154 149 159 164 161 163 154 145 136 145 150 152 151
152 150 154 150 155 156 157 154 154 159 159 166 165 170 156 147 145 145 146 149 154 150
155 158 163 159 156 160 161 152 167 167 162 166 165 168 156 149 149 150 146 151 153 153
159 163 161 158 165 159 160 168 168 164 163 160 168 176 155 157 151 156 154 158 158 160
168 159 159 168 166 165 152 157 163 164 163 166 176 179 164 153 148 157 161 151 152 158
167 168 172 171 164 149 161 163 152 159 173 164 158 173 165 163 148 150 148 147 146 166
170 168 169 162 157 155 148 146 154 161 165 160 158 174 184 180 155 154 143 154 165 175